To NAV CANADA Home Page Login to a new session Search on AWWS site Feedback and Comments Disclaimer Vers la page française équivalente Tips FAQ What's new on the site To the Forecasts and Observations / NOTAM section To "File a Flight Plan" website Publications and other links Update of the User's profile FIC Telephone Numbers My Weather Data Folder Route Weather Data Regional Weather Data Local Weather Data To the Forecasts and Observations / NOTAM section
Request Generated 05/31/2016 at 07:37:05 UTC . Weather information available at that time is displayed.

METAR/TAF

FARO/YT    

LWIS CZFA 310700Z AUTO VRB02KT 07/04 A3011=
LWIS CZFA 310600Z AUTO 19006KT 150V230 09/03 A3011=
LWIS CZFA 310500Z AUTO 10004KT 070V130 10/02 A3011=

*** REMARK        : Forecast period has ended; this was the last TAF issued
*** REMARQUE : La période de prévision est échue; ceci était le dernier TAF qui a été émis
TAF CZFA 301741Z 3018/3022 14010KT P6SM FEW050 SCT100 BKN150
FM302000 14008KT P6SM SCT050 BKN070 TEMPO 3020/3022 5SM -SHRA BR
BKN050 OVC070
RMK NXT FCST WILL BE ISSUED AT 311545Z=
Your time UTC time
Weather data provided by Environment Canada and NAV CANADA